| time (UTC) | temp F | wind direction | speed MPH | gust MPH | rain 1hr in | rain 24hr in | rain mn in | humidity % | barometer mb |
| 20260503223904 | 67 | 291 | 3.0 | 7.0 | 0.00 | 0.00 | 0.00 | 38 | 1012.8 |
| 20260503223404 | 67 | 201 | 1.0 | 10.0 | 0.00 | 0.00 | 0.00 | 38 | 1012.8 |
| 20260503222904 | 67 | 205 | 1.0 | 8.0 | 0.00 | 0.00 | 0.00 | 38 | 1012.9 |
| 20260503221404 | 67 | 211 | 3.0 | 10.0 | 0.00 | 0.00 | 0.00 | 39 | 1013.1 |
| 20260503220904 | 67 | 282 | 1.0 | 5.0 | 0.00 | 0.00 | 0.00 | 39 | 1013.1 |
| 20260503220404 | 67 | 192 | 1.0 | 6.0 | 0.00 | 0.00 | 0.00 | 38 | 1013.2 |
| 20260503215904 | 67 | 263 | 1.0 | 6.0 | 0.00 | 0.00 | 0.00 | 38 | 1013.2 |
| 20260503215404 | 67 | 189 | 1.0 | 7.0 | 0.00 | 0.00 | 0.00 | 38 | 1013.4 |
| 20260503214904 | 67 | 287 | 2.0 | 12.0 | 0.00 | 0.00 | 0.00 | 39 | 1013.5 |
| 20260503214403 | 67 | 298 | 2.0 | 13.0 | 0.00 | 0.00 | 0.00 | 39 | 1013.2 |
| 20260503213904 | 67 | 195 | 1.0 | 3.0 | 0.00 | 0.00 | 0.00 | 38 | 1013.3 |
| 20260503213404 | 67 | 186 | 2.0 | 12.0 | 0.00 | 0.00 | 0.00 | 38 | 1013.4 |
| 20260503212904 | 67 | 274 | 0.0 | 9.0 | 0.00 | 0.00 | 0.00 | 39 | 1013.1 |
| 20260503212404 | 67 | 203 | 1.0 | 14.0 | 0.00 | 0.00 | 0.00 | 38 | 1013.3 |
| 20260503211904 | 67 | 185 | 5.0 | 12.0 | 0.00 | 0.00 | 0.00 | 38 | 1013.6 |
| 20260503211404 | 67 | 306 | 3.0 | 12.0 | 0.00 | 0.00 | 0.00 | 38 | 1013.4 |
| 20260503210904 | 67 | 70 | 2.0 | 7.0 | 0.00 | 0.00 | 0.00 | 39 | 1013.6 |
| 20260503210404 | 67 | 176 | 2.0 | 12.0 | 0.00 | 0.00 | 0.00 | 39 | 1013.8 |
| 20260503205904 | 67 | 295 | 1.0 | 10.0 | 0.00 | 0.00 | 0.00 | 39 | 1013.7 |
| 20260503205404 | 67 | 221 | 1.0 | 9.0 | 0.00 | 0.00 | 0.00 | 39 | 1013.6 |
| 20260503204904 | 68 | 203 | 2.0 | 9.0 | 0.00 | 0.00 | 0.00 | 39 | 1013.7 |
| 20260503203904 | 68 | 220 | 2.0 | 9.0 | 0.00 | 0.00 | 0.00 | 39 | 1014.0 |
| 20260503202904 | 67 | 199 | 5.0 | 15.0 | 0.00 | 0.00 | 0.00 | 39 | 1013.8 |
| 20260503202404 | 67 | 270 | 1.0 | 6.0 | 0.00 | 0.00 | 0.00 | 39 | 1014.1 |
| 20260503201904 | 68 | 269 | 0.0 | 7.0 | 0.00 | 0.00 | 0.00 | 39 | 1014.5 |
| 20260503201403 | 68 | 240 | 0.0 | 7.0 | 0.00 | 0.00 | 0.00 | 40 | 1014.5 |
| 20260503200904 | 68 | 219 | 1.0 | 12.0 | 0.00 | 0.00 | 0.00 | 40 | 1014.6 |
| 20260503200404 | 68 | 188 | 1.0 | 5.0 | 0.00 | 0.00 | 0.00 | 40 | 1014.7 |
| 20260503195904 | 68 | 284 | 2.0 | 13.0 | 0.00 | 0.00 | 0.00 | 40 | 1014.9 |
| 20260503194903 | 68 | 240 | 2.0 | 10.0 | 0.00 | 0.00 | 0.00 | 39 | 1015.0 |
| 20260503194403 | 68 | 241 | 2.0 | 9.0 | 0.00 | 0.00 | 0.00 | 40 | 1015.1 |
| 20260503193904 | 68 | 189 | 3.0 | 10.0 | 0.00 | 0.00 | 0.00 | 40 | 1015.1 |
| 20260503193404 | 68 | 186 | 4.0 | 8.0 | 0.00 | 0.00 | 0.00 | 40 | 1015.2 |
| 20260503192904 | 68 | 260 | 2.0 | 10.0 | 0.00 | 0.00 | 0.00 | 41 | 1015.4 |
| 20260503191904 | 68 | 183 | 5.0 | 17.0 | 0.00 | 0.00 | 0.00 | 41 | 1015.6 |
| 20260503191403 | 68 | 193 | 5.0 | 13.0 | 0.00 | 0.00 | 0.00 | 42 | 1015.5 |
| 20260503190904 | 68 | 195 | 1.0 | 6.0 | 0.00 | 0.00 | 0.00 | 42 | 1015.6 |
| 20260503185903 | 67 | 195 | 2.0 | 8.0 | 0.00 | 0.00 | 0.00 | 41 | 1015.8 |
| 20260503185404 | 67 | 306 | 4.0 | 10.0 | 0.00 | 0.00 | 0.00 | 41 | 1015.8 |
| 20260503184904 | 67 | 266 | 1.0 | 9.0 | 0.00 | 0.00 | 0.00 | 42 | 1015.9 |
| 20260503183903 | 66 | 180 | 4.0 | 12.0 | 0.00 | 0.00 | 0.00 | 41 | 1016.2 |
| 20260503182904 | 66 | 193 | 1.0 | 6.0 | 0.00 | 0.00 | 0.00 | 41 | 1016.2 |
| 20260503182403 | 67 | 186 | 1.0 | 10.0 | 0.00 | 0.00 | 0.00 | 41 | 1016.3 |
| 20260503181904 | 67 | 250 | 1.0 | 9.0 | 0.00 | 0.00 | 0.00 | 42 | 1016.2 |
| 20260503181404 | 67 | 211 | 2.0 | 7.0 | 0.00 | 0.00 | 0.00 | 42 | 1016.3 |
| 20260503180904 | 67 | 171 | 3.0 | 16.0 | 0.00 | 0.00 | 0.00 | 43 | 1016.3 |
| 20260503180403 | 66 | 169 | 5.0 | 12.0 | 0.00 | 0.00 | 0.00 | 42 | 1016.4 |
| 20260503175904 | 66 | 169 | 6.0 | 12.0 | 0.00 | 0.00 | 0.00 | 42 | 1016.7 |
| 20260503175403 | 66 | 246 | 1.0 | 6.0 | 0.00 | 0.00 | 0.00 | 42 | 1016.6 |
| 20260503173903 | 67 | 184 | 4.0 | 12.0 | 0.00 | 0.00 | 0.00 | 43 | 1016.9 |
| 20260503173403 | 67 | 196 | 1.0 | 12.0 | 0.00 | 0.00 | 0.00 | 43 | 1017.1 |
| 20260503172904 | 67 | 208 | 3.0 | 12.0 | 0.00 | 0.00 | 0.00 | 43 | 1017.0 |
| 20260503172403 | 66 | 227 | 3.0 | 9.0 | 0.00 | 0.00 | 0.00 | 44 | 1017.3 |
| 20260503171903 | 66 | 156 | 2.0 | 5.0 | 0.00 | 0.00 | 0.00 | 43 | 1017.4 |
| 20260503171403 | 66 | 261 | 3.0 | 10.0 | 0.00 | 0.00 | 0.00 | 44 | 1017.6 |
| 20260503170903 | 66 | 168 | 3.0 | 8.0 | 0.00 | 0.00 | 0.00 | 43 | 1017.5 |
| 20260503150405 | 65 | 298 | 3.0 | 12.0 | 0.00 | 0.00 | 0.00 | 57 | 1018.9 |
| 20260503131405 | 48 | 197 | 1.0 | 8.0 | 0.00 | 0.00 | 0.00 | 83 | 1019.9 |
| 20260503130906 | 47 | 203 | 1.0 | 5.0 | 0.00 | 0.00 | 0.00 | 83 | 1020.1 |
| 20260503130406 | 46 | 191 | 1.0 | 5.0 | 0.00 | 0.00 | 0.00 | 83 | 1020.2 |
| 20260503090405 | 33 | 317 | 0.0 | 0.0 | 0.00 | 0.00 | 0.00 | 78 | 1020.0 |
| 20260503081405 | 34 | 317 | 0.0 | 0.0 | 0.00 | 0.00 | 0.00 | 76 | 1019.8 |
| 20260503080905 | 34 | 317 | 0.0 | 0.0 | 0.00 | 0.00 | 0.00 | 76 | 1019.5 |
| 20260503072905 | 35 | 317 | 0.0 | 0.0 | 0.00 | 0.00 | 0.00 | 75 | 1019.3 |
| 20260503072405 | 35 | 317 | 0.0 | 0.0 | 0.00 | 0.00 | 0.00 | 75 | 1019.5 |
| 20260503071906 | 35 | 317 | 0.0 | 0.0 | 0.00 | 0.00 | 0.00 | 75 | 1019.5 |
| 20260503071405 | 35 | 317 | 0.0 | 0.0 | 0.00 | 0.00 | 0.00 | 74 | 1019.5 |
| 20260503070905 | 35 | 317 | 0.0 | 0.0 | 0.00 | 0.00 | 0.00 | 74 | 1019.5 |
| 20260503070405 | 35 | 317 | 0.0 | 0.0 | 0.00 | 0.00 | 0.00 | 74 | 1019.3 |
| 20260503054905 | 36 | 317 | 0.0 | 0.0 | 0.00 | 0.00 | 0.00 | 71 | 1019.6 |
| 20260503054404 | 37 | 317 | 0.0 | 0.0 | 0.00 | 0.00 | 0.00 | 71 | 1019.5 |
| 20260503053904 | 37 | 317 | 0.0 | 0.0 | 0.00 | 0.00 | 0.00 | 71 | 1019.5 |
| 20260503053405 | 37 | 317 | 0.0 | 0.0 | 0.00 | 0.00 | 0.00 | 71 | 1019.5 |
| 20260503052905 | 37 | 317 | 0.0 | 0.0 | 0.00 | 0.00 | 0.00 | 71 | 1019.6 |
| 20260503052405 | 37 | 317 | 0.0 | 0.0 | 0.00 | 0.00 | 0.00 | 70 | 1019.4 |
| 20260503051905 | 37 | 317 | 0.0 | 0.0 | 0.00 | 0.00 | 0.00 | 70 | 1019.4 |
| 20260503051406 | 37 | 317 | 0.0 | 0.0 | 0.00 | 0.00 | 0.00 | 70 | 1019.7 |
| 20260503050905 | 37 | 317 | 0.0 | 0.0 | 0.00 | 0.00 | 0.00 | 70 | 1019.5 |
| 20260503050405 | 38 | 317 | 0.0 | 0.0 | 0.00 | 0.00 | 0.00 | 69 | 1019.5 |
| 20260503045904 | 38 | 317 | 0.0 | 0.0 | 0.00 | 0.00 | 0.00 | 69 | 1019.6 |
| 20260503045405 | 38 | 317 | 0.0 | 0.0 | 0.00 | 0.00 | 0.00 | 69 | 1019.8 |
| 20260503044905 | 38 | 317 | 0.0 | 0.0 | 0.00 | 0.00 | 0.00 | 69 | 1019.5 |
| 20260503044405 | 38 | 317 | 0.0 | 0.0 | 0.00 | 0.00 | 0.00 | 68 | 1019.3 |
| 20260503043904 | 38 | 317 | 0.0 | 0.0 | 0.00 | 0.00 | 0.00 | 68 | 1019.4 |
| 20260503042905 | 39 | 317 | 0.0 | 0.0 | 0.00 | 0.00 | 0.00 | 68 | 1019.2 |
| 20260503042405 | 39 | 317 | 0.0 | 0.0 | 0.00 | 0.00 | 0.00 | 68 | 1019.3 |
| 20260503041404 | 40 | 317 | 0.0 | 0.0 | 0.00 | 0.00 | 0.00 | 67 | 1019.1 |
| 20260503040904 | 40 | 317 | 0.0 | 0.0 | 0.00 | 0.00 | 0.00 | 67 | 1019.1 |
| 20260503040404 | 40 | 317 | 0.0 | 0.0 | 0.00 | 0.00 | 0.00 | 67 | 1019.1 |
| 20260503035905 | 41 | 317 | 0.0 | 0.0 | 0.00 | 0.00 | 0.00 | 66 | 1018.8 |
| 20260503035405 | 41 | 317 | 0.0 | 0.0 | 0.00 | 0.00 | 0.00 | 66 | 1018.9 |
| 20260503034905 | 41 | 317 | 0.0 | 0.0 | 0.00 | 0.00 | 0.00 | 66 | 1019.0 |
| 20260503034405 | 42 | 319 | 0.0 | 0.0 | 0.00 | 0.00 | 0.00 | 66 | 1018.9 |
| 20260503033905 | 42 | 320 | 0.0 | 0.0 | 0.00 | 0.00 | 0.00 | 66 | 1018.8 |
| 20260503033405 | 42 | 320 | 0.0 | 0.0 | 0.00 | 0.00 | 0.00 | 67 | 1018.7 |
| 20260503032905 | 42 | 320 | 0.0 | 0.0 | 0.00 | 0.00 | 0.00 | 67 | 1018.8 |
| 20260503032404 | 42 | 320 | 0.0 | 1.0 | 0.00 | 0.00 | 0.00 | 67 | 1018.8 |
| 20260503031905 | 42 | 320 | 0.0 | 0.0 | 0.00 | 0.00 | 0.00 | 67 | 1018.7 |
| 20260503031405 | 42 | 320 | 0.0 | 0.0 | 0.00 | 0.00 | 0.00 | 66 | 1018.7 |
| 20260503030905 | 42 | 320 | 0.0 | 0.0 | 0.00 | 0.00 | 0.00 | 66 | 1018.7 |
| 20260503030404 | 42 | 320 | 0.0 | 0.0 | 0.00 | 0.00 | 0.00 | 66 | 1019.0 |
| 20260503025905 | 42 | 320 | 0.0 | 0.0 | 0.00 | 0.00 | 0.00 | 66 | 1018.8 |
| 20260503025405 | 42 | 320 | 0.0 | 0.0 | 0.00 | 0.00 | 0.00 | 65 | 1018.8 |
| 20260503024904 | 42 | 320 | 0.0 | 0.0 | 0.00 | 0.00 | 0.00 | 65 | 1018.8 |
| 20260503024404 | 42 | 320 | 0.0 | 0.0 | 0.00 | 0.00 | 0.00 | 64 | 1018.4 |
| 20260503023904 | 42 | 320 | 0.0 | 0.0 | 0.00 | 0.00 | 0.00 | 64 | 1018.7 |
| 20260503023405 | 42 | 320 | 0.0 | 0.0 | 0.00 | 0.00 | 0.00 | 63 | 1018.4 |
| 20260503022905 | 42 | 320 | 0.0 | 0.0 | 0.00 | 0.00 | 0.00 | 63 | 1018.5 |
| 20260503022404 | 43 | 320 | 0.0 | 0.0 | 0.00 | 0.00 | 0.00 | 63 | 1018.2 |
| 20260503021905 | 43 | 320 | 0.0 | 0.0 | 0.00 | 0.00 | 0.00 | 62 | 1018.4 |
| 20260503021404 | 43 | 320 | 0.0 | 0.0 | 0.00 | 0.00 | 0.00 | 62 | 1018.1 |
| 20260503020905 | 44 | 320 | 0.0 | 0.0 | 0.00 | 0.00 | 0.00 | 62 | 1017.9 |
| 20260503020405 | 44 | 320 | 0.0 | 0.0 | 0.00 | 0.00 | 0.00 | 61 | 1018.0 |
| 20260503015905 | 44 | 320 | 0.0 | 0.0 | 0.00 | 0.00 | 0.00 | 61 | 1017.6 |
| 20260503015404 | 44 | 320 | 0.0 | 0.0 | 0.00 | 0.00 | 0.00 | 60 | 1017.6 |
| 20260503014405 | 45 | 320 | 0.0 | 0.0 | 0.00 | 0.00 | 0.00 | 60 | 1017.4 |
| 20260503013904 | 46 | 320 | 0.0 | 0.0 | 0.00 | 0.00 | 0.00 | 59 | 1017.2 |
| 20260503013405 | 46 | 320 | 0.0 | 0.0 | 0.00 | 0.00 | 0.00 | 59 | 1017.2 |
| 20260503012905 | 47 | 320 | 0.0 | 0.0 | 0.00 | 0.00 | 0.00 | 59 | 1017.4 |
| 20260503012404 | 47 | 320 | 0.0 | 0.0 | 0.00 | 0.00 | 0.00 | 59 | 1017.4 |
| 20260503011904 | 48 | 320 | 0.0 | 1.0 | 0.00 | 0.00 | 0.00 | 59 | 1017.1 |
| 20260503011404 | 48 | 320 | 0.0 | 1.0 | 0.00 | 0.00 | 0.00 | 59 | 1017.0 |
| 20260503010904 | 48 | 320 | 0.0 | 3.0 | 0.00 | 0.00 | 0.00 | 58 | 1017.0 |
| 20260503010404 | 48 | 279 | 3.0 | 7.0 | 0.00 | 0.00 | 0.00 | 58 | 1016.6 |
| 20260503005405 | 49 | 312 | 0.0 | 0.0 | 0.00 | 0.00 | 0.00 | 57 | 1016.6 |
| 20260503004404 | 50 | 312 | 0.0 | 0.0 | 0.00 | 0.00 | 0.00 | 55 | 1016.5 |
| 20260503003904 | 50 | 312 | 0.0 | 0.0 | 0.00 | 0.00 | 0.00 | 55 | 1016.6 |
| 20260503003404 | 50 | 312 | 0.0 | 0.0 | 0.00 | 0.00 | 0.00 | 54 | 1016.2 |
| 20260503002904 | 51 | 312 | 0.0 | 0.0 | 0.00 | 0.00 | 0.00 | 53 | 1016.3 |
| 20260503001905 | 52 | 312 | 0.0 | 1.0 | 0.00 | 0.00 | 0.00 | 52 | 1015.8 |
| 20260503001405 | 53 | 299 | 1.0 | 5.0 | 0.00 | 0.00 | 0.00 | 52 | 1016.0 |
| 20260503000904 | 53 | 312 | 1.0 | 3.0 | 0.00 | 0.00 | 0.00 | 52 | 1015.9 |
| 20260502235905 | 54 | 304 | 0.0 | 1.0 | 0.00 | 0.00 | 0.00 | 52 | 1015.5 |
| 20260502234904 | 54 | 315 | 0.0 | 3.0 | 0.00 | 0.00 | 0.00 | 51 | 1015.6 |
| 20260502234404 | 54 | 328 | 2.0 | 6.0 | 0.00 | 0.00 | 0.00 | 51 | 1015.5 |
| 20260502233404 | 55 | 320 | 1.0 | 6.0 | 0.00 | 0.00 | 0.00 | 51 | 1015.5 |
| 20260502232404 | 55 | 293 | 1.0 | 5.0 | 0.00 | 0.00 | 0.00 | 50 | 1015.4 |
| 20260502231904 | 55 | 333 | 2.0 | 7.0 | 0.00 | 0.00 | 0.00 | 50 | 1015.6 |
| 20260502231404 | 56 | 314 | 2.0 | 7.0 | 0.00 | 0.00 | 0.00 | 50 | 1015.4 |
| 20260502230904 | 56 | 334 | 1.0 | 7.0 | 0.00 | 0.00 | 0.00 | 50 | 1015.6 |
| 20260502230404 | 56 | 344 | 0.0 | 7.0 | 0.00 | 0.00 | 0.00 | 50 | 1015.5 |
| 20260502225905 | 57 | 311 | 1.0 | 8.0 | 0.00 | 0.00 | 0.00 | 50 | 1015.4 |
| 20260502225404 | 58 | 323 | 2.0 | 6.0 | 0.00 | 0.00 | 0.00 | 50 | 1015.2 |
| 20260502224904 | 58 | 316 | 0.0 | 5.0 | 0.00 | 0.00 | 0.00 | 51 | 1015.3 |
| 20260502224404 | 57 | 255 | 0.0 | 8.0 | 0.00 | 0.00 | 0.00 | 51 | 1015.2 |